{"data":{"norad_id":65425,"epoch":"2026-09-20T17:42:37.756800Z","epoch_age_seconds":94223,"freshness":"FRESH","line1":"1 65425U 25192X   26263.73793700  .00018532  00000+0  60696-3 0  9994","line2":"2 65425  53.1602  45.1856 0000503 104.1558 255.9500 15.31726732 59267","mean_motion":15.31726732,"eccentricity":5.03e-5,"inclination_deg":53.1602,"raan_deg":45.1856,"arg_perigee_deg":104.1558,"mean_anomaly_deg":255.95,"bstar":0.00060696,"rev_number":5926,"period_min":94.011547224208,"perigee_km":470.31581517892,"apogee_km":471.00480418827,"semimajor_km":6848.7973096836,"source":"CELESTRAK","updated_at":"2026-09-21T09:00:35.606519Z"}}